Time,TemperatureF,DewpointF,PressureIn,WindDirection,WindDirectionDegrees,WindSpeedMPH,WindSpeedGustMPH,Humidity,HourlyPrecipIn,Conditions,Clouds,dailyrainin,SolarRadiationWatts/m^2,SoftwareType,DateUTC
2013-03-09 00:03:00,38.0,25.0,-100.00,NNW,330,5.0,16.0,58,0.00,,,0.00,0.000000,,2013-03-09 05:03:00,
2013-03-09 00:12:00,38.0,25.0,-100.00,NNW,330,5.0,16.0,58,0.00,,,0.00,0.000000,,2013-03-09 05:12:00,
2013-03-09 00:32:00,37.0,24.0,-100.00,NW,319,5.0,11.0,60,0.00,,,0.00,0.000000,,2013-03-09 05:32:00,
2013-03-09 00:43:00,37.0,24.0,-100.00,NW,319,5.0,11.0,60,0.00,,,0.00,0.000000,,2013-03-09 05:43:00,
2013-03-09 00:53:00,37.0,24.0,-100.00,NW,319,5.0,11.0,60,0.00,,,0.00,0.000000,,2013-03-09 05:53:00,
2013-03-09 01:02:00,37.0,24.0,-100.00,NW,319,5.0,11.0,60,0.00,,,0.00,0.000000,,2013-03-09 06:02:00,
2013-03-09 01:11:00,37.0,24.0,-100.00,NW,319,5.0,11.0,60,0.00,,,0.00,0.000000,,2013-03-09 06:11:00,
2013-03-09 01:32:00,36.0,24.0,-100.00,NNW,330,5.0,10.0,62,0.00,,,0.00,0.000000,,2013-03-09 06:32:00,
2013-03-09 01:42:00,36.0,24.0,-100.00,NNW,330,5.0,10.0,62,0.00,,,0.00,0.000000,,2013-03-09 06:42:00,
2013-03-09 01:52:00,36.0,24.0,-100.00,NNW,330,5.0,10.0,62,0.00,,,0.00,0.000000,,2013-03-09 06:52:00,
2013-03-09 02:01:00,36.0,24.0,-100.00,NNW,330,5.0,10.0,62,0.00,,,0.00,0.000000,,2013-03-09 07:01:00,
2013-03-09 02:11:00,36.0,24.0,-100.00,NNW,330,5.0,10.0,62,0.00,,,0.00,0.000000,,2013-03-09 07:11:00,
2013-03-09 02:32:00,36.0,24.0,-100.00,NW,318,6.0,11.0,61,0.00,,,0.00,0.000000,,2013-03-09 07:32:00,
2013-03-09 02:42:00,36.0,24.0,-100.00,NW,318,6.0,11.0,61,0.00,,,0.00,0.000000,,2013-03-09 07:42:00,
2013-03-09 02:52:00,36.0,24.0,-100.00,NW,318,6.0,11.0,61,0.00,,,0.00,0.000000,,2013-03-09 07:52:00,
2013-03-09 03:01:00,36.0,24.0,-100.00,NW,318,6.0,11.0,61,0.00,,,0.00,0.000000,,2013-03-09 08:01:00,
2013-03-09 03:11:00,36.0,24.0,-100.00,NW,318,6.0,11.0,61,0.00,,,0.00,0.000000,,2013-03-09 08:11:00,
2013-03-09 03:42:00,35.0,23.0,-100.00,NW,321,6.0,14.0,62,0.00,,,0.00,0.000000,,2013-03-09 08:42:00,
2013-03-09 03:52:00,35.0,23.0,-100.00,NW,321,6.0,14.0,62,0.00,,,0.00,0.000000,,2013-03-09 08:52:00,
2013-03-09 04:02:00,35.0,23.0,-100.00,NW,321,6.0,14.0,62,0.00,,,0.00,0.000000,,2013-03-09 09:02:00,
2013-03-09 04:12:00,35.0,23.0,-100.00,NW,321,6.0,14.0,62,0.00,,,0.00,0.000000,,2013-03-09 09:12:00,
2013-03-09 04:32:00,34.0,23.0,-100.00,NW,309,4.0,11.0,64,0.00,,,0.00,0.000000,,2013-03-09 09:32:00,
2013-03-09 04:42:00,34.0,23.0,-100.00,NW,309,4.0,11.0,64,0.00,,,0.00,0.000000,,2013-03-09 09:42:00,
2013-03-09 04:52:00,34.0,23.0,-100.00,NW,309,4.0,11.0,64,0.00,,,0.00,0.000000,,2013-03-09 09:52:00,
2013-03-09 05:01:00,34.0,23.0,-100.00,NW,309,4.0,11.0,64,0.00,,,0.00,0.000000,,2013-03-09 10:01:00,
2013-03-09 05:11:00,34.0,23.0,-100.00,NW,309,4.0,11.0,64,0.00,,,0.00,0.000000,,2013-03-09 10:11:00,
2013-03-09 05:42:00,33.0,23.0,-100.00,NW,310,3.0,7.0,66,0.00,,,0.00,0.000000,,2013-03-09 10:42:00,
2013-03-09 05:52:00,33.0,23.0,-100.00,NW,310,3.0,7.0,66,0.00,,,0.00,0.000000,,2013-03-09 10:52:00,
2013-03-09 06:01:00,33.0,23.0,-100.00,NW,310,3.0,7.0,66,0.00,,,0.00,0.000000,,2013-03-09 11:01:00,
2013-03-09 06:11:00,33.0,23.0,-100.00,NW,310,3.0,7.0,66,0.00,,,0.00,0.000000,,2013-03-09 11:11:00,
2013-03-09 06:32:00,31.0,21.0,-100.00,NW,317,4.0,6.0,66,0.00,,,0.00,0.000000,,2013-03-09 11:32:00,
2013-03-09 06:42:00,31.0,21.0,-100.00,NW,317,4.0,6.0,66,0.00,,,0.00,0.000000,,2013-03-09 11:42:00,
2013-03-09 06:52:00,31.0,21.0,-100.00,NW,317,4.0,6.0,66,0.00,,,0.00,0.000000,,2013-03-09 11:52:00,
2013-03-09 07:02:00,31.0,21.0,-100.00,NW,317,4.0,6.0,66,0.00,,,0.00,0.000000,,2013-03-09 12:02:00,
2013-03-09 07:11:00,31.0,21.0,-100.00,NW,317,4.0,6.0,66,0.00,,,0.00,0.000000,,2013-03-09 12:11:00,
2013-03-09 07:32:00,34.0,24.0,-100.00,West,268,2.0,5.0,66,0.00,,,-99.99,19.000000,,2013-03-09 12:32:00,
2013-03-09 07:42:00,34.0,24.0,-100.00,West,268,2.0,5.0,66,0.00,,,-99.99,19.000000,,2013-03-09 12:42:00,
2013-03-09 07:52:00,34.0,24.0,-100.00,West,268,2.0,5.0,66,0.00,,,-99.99,19.000000,,2013-03-09 12:52:00,
2013-03-09 08:02:00,34.0,24.0,-100.00,West,268,2.0,5.0,66,0.00,,,-99.99,19.000000,,2013-03-09 13:02:00,
2013-03-09 08:11:00,34.0,24.0,-100.00,West,268,2.0,5.0,66,0.00,,,-99.99,19.000000,,2013-03-09 13:11:00,
2013-03-09 08:32:00,40.0,24.0,-100.00,NW,325,7.0,11.0,53,0.00,,,0.00,173.000000,,2013-03-09 13:32:00,
2013-03-09 08:42:00,40.0,24.0,-100.00,NW,325,7.0,11.0,53,0.00,,,0.00,173.000000,,2013-03-09 13:42:00,
2013-03-09 08:52:00,40.0,24.0,-100.00,NW,325,7.0,11.0,53,0.00,,,0.00,173.000000,,2013-03-09 13:52:00,
2013-03-09 09:01:00,40.0,24.0,-100.00,NW,325,7.0,11.0,53,0.00,,,0.00,173.000000,,2013-03-09 14:01:00,
2013-03-09 09:11:00,40.0,24.0,-100.00,NW,325,7.0,11.0,53,0.00,,,0.00,173.000000,,2013-03-09 14:11:00,
2013-03-09 09:32:00,43.0,24.0,-100.00,NW,324,6.0,12.0,46,0.00,,,0.00,355.000000,,2013-03-09 14:32:00,
2013-03-09 09:42:00,43.0,24.0,-100.00,NW,324,6.0,12.0,46,0.00,,,0.00,355.000000,,2013-03-09 14:42:00,
2013-03-09 09:52:00,43.0,24.0,-100.00,NW,324,6.0,12.0,46,0.00,,,0.00,355.000000,,2013-03-09 14:52:00,
2013-03-09 10:02:00,43.0,24.0,-100.00,NW,324,6.0,12.0,46,0.00,,,0.00,355.000000,,2013-03-09 15:02:00,
2013-03-09 10:12:00,43.0,24.0,-100.00,NW,324,6.0,12.0,46,0.00,,,0.00,355.000000,,2013-03-09 15:12:00,
2013-03-09 10:32:00,47.0,25.0,-100.00,NNW,340,4.0,10.0,41,0.00,,,0.00,513.000000,,2013-03-09 15:32:00,
2013-03-09 10:42:00,47.0,25.0,-100.00,NNW,340,4.0,10.0,41,0.00,,,0.00,513.000000,,2013-03-09 15:42:00,
2013-03-09 10:52:00,47.0,25.0,-100.00,NNW,340,4.0,10.0,41,0.00,,,0.00,513.000000,,2013-03-09 15:52:00,
2013-03-09 11:01:00,47.0,25.0,-100.00,NNW,340,4.0,10.0,41,0.00,,,0.00,513.000000,,2013-03-09 16:01:00,
2013-03-09 11:11:00,47.0,25.0,-100.00,NNW,340,4.0,10.0,41,0.00,,,0.00,513.000000,,2013-03-09 16:11:00,
2013-03-09 11:32:00,49.0,23.0,-100.00,NE,35,4.0,11.0,36,0.00,,,0.00,642.000000,,2013-03-09 16:32:00,
2013-03-09 11:42:00,49.0,23.0,-100.00,NE,35,4.0,11.0,36,0.00,,,0.00,642.000000,,2013-03-09 16:42:00,
2013-03-09 11:52:00,49.0,23.0,-100.00,NE,35,4.0,11.0,36,0.00,,,0.00,642.000000,,2013-03-09 16:52:00,
2013-03-09 12:01:00,49.0,23.0,-100.00,NE,35,4.0,11.0,36,0.00,,,0.00,642.000000,,2013-03-09 17:01:00,
2013-03-09 12:11:00,49.0,23.0,-100.00,NE,35,4.0,11.0,36,0.00,,,0.00,642.000000,,2013-03-09 17:11:00,
2013-03-09 12:32:00,53.0,25.0,-100.00,WNW,296,4.0,11.0,34,0.00,,,0.00,712.000000,,2013-03-09 17:32:00,
2013-03-09 12:42:00,53.0,25.0,-100.00,WNW,296,4.0,11.0,34,0.00,,,0.00,712.000000,,2013-03-09 17:42:00,
2013-03-09 12:52:00,53.0,25.0,-100.00,WNW,296,4.0,11.0,34,0.00,,,0.00,712.000000,,2013-03-09 17:52:00,
2013-03-09 13:02:00,53.0,25.0,-100.00,WNW,296,4.0,11.0,34,0.00,,,0.00,712.000000,,2013-03-09 18:02:00,
2013-03-09 13:11:00,53.0,25.0,-100.00,WNW,296,4.0,11.0,34,0.00,,,0.00,712.000000,,2013-03-09 18:11:00,
2013-03-09 13:32:00,56.0,24.0,-100.00,NNW,341,5.0,8.0,29,0.00,,,-99.99,730.000000,,2013-03-09 18:32:00,
2013-03-09 13:42:00,56.0,24.0,-100.00,NNW,341,5.0,8.0,29,0.00,,,-99.99,730.000000,,2013-03-09 18:42:00,
2013-03-09 13:52:00,56.0,24.0,-100.00,NNW,341,5.0,8.0,29,0.00,,,-99.99,730.000000,,2013-03-09 18:52:00,
2013-03-09 14:02:00,56.0,24.0,-100.00,NNW,341,5.0,8.0,29,0.00,,,-99.99,730.000000,,2013-03-09 19:02:00,
2013-03-09 14:12:00,56.0,24.0,-100.00,NNW,341,5.0,8.0,29,0.00,,,-99.99,730.000000,,2013-03-09 19:12:00,
2013-03-09 14:42:00,59.0,22.0,-100.00,NE,45,3.0,7.0,24,0.00,,,0.00,684.000000,,2013-03-09 19:42:00,
2013-03-09 14:52:00,59.0,22.0,-100.00,NE,45,3.0,7.0,24,0.00,,,0.00,684.000000,,2013-03-09 19:52:00,
2013-03-09 15:02:00,59.0,22.0,-100.00,NE,45,3.0,7.0,24,0.00,,,0.00,684.000000,,2013-03-09 20:02:00,
2013-03-09 15:11:00,59.0,22.0,-100.00,NE,45,3.0,7.0,24,0.00,,,0.00,684.000000,,2013-03-09 20:11:00,
2013-03-09 15:32:00,60.0,20.0,-100.00,SW,220,3.0,8.0,21,0.00,,,0.00,578.000000,,2013-03-09 20:32:00,
2013-03-09 15:42:00,60.0,20.0,-100.00,SW,220,3.0,8.0,21,0.00,,,0.00,578.000000,,2013-03-09 20:42:00,
2013-03-09 15:52:00,60.0,20.0,-100.00,SW,220,3.0,8.0,21,0.00,,,0.00,578.000000,,2013-03-09 20:52:00,
2013-03-09 16:02:00,60.0,20.0,-100.00,SW,220,3.0,8.0,21,0.00,,,0.00,578.000000,,2013-03-09 21:02:00,
2013-03-09 16:12:00,60.0,20.0,-100.00,SW,220,3.0,8.0,21,0.00,,,0.00,578.000000,,2013-03-09 21:12:00,
2013-03-09 16:32:00,60.0,16.0,-100.00,SE,132,4.0,7.0,18,0.00,,,0.00,429.000000,,2013-03-09 21:32:00,
2013-03-09 16:42:00,60.0,16.0,-100.00,SE,132,4.0,7.0,18,0.00,,,0.00,429.000000,,2013-03-09 21:42:00,
2013-03-09 16:52:00,60.0,16.0,-100.00,SE,132,4.0,7.0,18,0.00,,,0.00,429.000000,,2013-03-09 21:52:00,
2013-03-09 17:01:00,60.0,16.0,-100.00,SE,132,4.0,7.0,18,0.00,,,0.00,429.000000,,2013-03-09 22:01:00,
2013-03-09 17:11:00,60.0,16.0,-100.00,SE,132,4.0,7.0,18,0.00,,,0.00,429.000000,,2013-03-09 22:11:00,
2013-03-09 17:42:00,59.0,16.0,-100.00,SSW,203,3.0,5.0,18,0.00,,,0.00,247.000000,,2013-03-09 22:42:00,
2013-03-09 17:52:00,59.0,16.0,-100.00,SSW,203,3.0,5.0,18,0.00,,,0.00,247.000000,,2013-03-09 22:52:00,
2013-03-09 18:01:00,59.0,16.0,-100.00,SSW,203,3.0,5.0,18,0.00,,,0.00,247.000000,,2013-03-09 23:01:00,
2013-03-09 18:11:00,59.0,16.0,-100.00,SSW,203,3.0,5.0,18,0.00,,,0.00,247.000000,,2013-03-09 23:11:00,
2013-03-09 18:32:00,54.0,15.0,-100.00,SE,137,2.0,4.0,21,0.00,,,0.00,59.000000,,2013-03-09 23:32:00,
2013-03-09 18:42:00,54.0,15.0,-100.00,SE,137,2.0,4.0,21,0.00,,,0.00,59.000000,,2013-03-09 23:42:00,
2013-03-09 18:52:00,54.0,15.0,-100.00,SE,137,2.0,4.0,21,0.00,,,0.00,59.000000,,2013-03-09 23:52:00,
2013-03-09 19:02:00,54.0,15.0,-100.00,SE,137,2.0,4.0,21,0.00,,,0.00,59.000000,,2013-03-10 00:02:00,
2013-03-09 19:11:00,54.0,15.0,-100.00,SE,137,2.0,4.0,21,0.00,,,0.00,59.000000,,2013-03-10 00:11:00,
2013-03-09 19:32:00,47.0,16.0,-100.00,SSE,157,1.0,4.0,29,0.00,,,0.00,0.000000,,2013-03-10 00:32:00,
2013-03-09 19:43:00,47.0,16.0,-100.00,SSE,157,1.0,4.0,29,0.00,,,0.00,0.000000,,2013-03-10 00:43:00,
2013-03-09 19:52:00,47.0,16.0,-100.00,SSE,157,1.0,4.0,29,0.00,,,0.00,0.000000,,2013-03-10 00:52:00,
2013-03-09 20:01:00,47.0,16.0,-100.00,SSE,157,1.0,4.0,29,0.00,,,0.00,0.000000,,2013-03-10 01:01:00,
2013-03-09 20:11:00,47.0,16.0,-100.00,SSE,157,1.0,4.0,29,0.00,,,0.00,0.000000,,2013-03-10 01:11:00,
2013-03-09 20:32:00,44.0,20.0,-100.00,SSW,203,1.0,5.0,38,0.00,,,-99.99,0.000000,,2013-03-10 01:32:00,
2013-03-09 20:42:00,44.0,20.0,-100.00,SSW,203,1.0,5.0,38,0.00,,,-99.99,0.000000,,2013-03-10 01:42:00,
2013-03-09 20:52:00,44.0,20.0,-100.00,SSW,203,1.0,5.0,38,0.00,,,-99.99,0.000000,,2013-03-10 01:52:00,
2013-03-09 21:01:00,44.0,20.0,-100.00,SSW,203,1.0,5.0,38,0.00,,,-99.99,0.000000,,2013-03-10 02:01:00,
2013-03-09 21:11:00,44.0,20.0,-100.00,SSW,203,1.0,5.0,38,0.00,,,-99.99,0.000000,,2013-03-10 02:11:00,
2013-03-09 21:42:00,40.0,23.0,-100.00,SSW,202,3.0,5.0,50,0.00,,,-99.99,0.000000,,2013-03-10 02:42:00,
2013-03-09 21:52:00,40.0,23.0,-100.00,SSW,202,3.0,5.0,50,0.00,,,-99.99,0.000000,,2013-03-10 02:52:00,
2013-03-09 22:02:00,40.0,23.0,-100.00,SSW,202,3.0,5.0,50,0.00,,,-99.99,0.000000,,2013-03-10 03:02:00,
2013-03-09 22:12:00,40.0,23.0,-100.00,SSW,202,3.0,5.0,50,0.00,,,-99.99,0.000000,,2013-03-10 03:12:00,
2013-03-09 22:32:00,37.0,24.0,-100.00,SSW,206,3.0,4.0,58,0.00,,,0.00,0.000000,,2013-03-10 03:32:00,
2013-03-09 22:42:00,37.0,24.0,-100.00,SSW,206,3.0,4.0,58,0.00,,,0.00,0.000000,,2013-03-10 03:42:00,
2013-03-09 22:52:00,37.0,24.0,-100.00,SSW,206,3.0,4.0,58,0.00,,,0.00,0.000000,,2013-03-10 03:52:00,
2013-03-09 23:01:00,37.0,24.0,-100.00,SSW,206,3.0,4.0,58,0.00,,,0.00,0.000000,,2013-03-10 04:01:00,
2013-03-09 23:11:00,37.0,24.0,-100.00,SSW,206,3.0,4.0,58,0.00,,,0.00,0.000000,,2013-03-10 04:11:00,
2013-03-09 23:32:00,36.0,22.0,-100.00,South,191,3.0,5.0,57,0.00,,,0.00,0.000000,,2013-03-10 04:32:00,
2013-03-09 23:42:00,36.0,22.0,-100.00,South,191,3.0,5.0,57,0.00,,,0.00,0.000000,,2013-03-10 04:42:00,
2013-03-09 23:52:00,36.0,22.0,-100.00,South,191,3.0,5.0,57,0.00,,,0.00,0.000000,,2013-03-10 04:52:00,